Time,TemperatureF,DewpointF,PressureIn,WindDirection,WindDirectionDegrees,WindSpeedMPH,WindSpeedGustMPH,Humidity,HourlyPrecipIn,Conditions,Clouds,dailyrainin,SoftwareType,DateUTC
2013-01-21 00:02:00,30.0,29.0,30.25,SW,221,0.0,-999.0,96,-99.99,,,-99.99,,2013-01-21 08:02:00,
2013-01-21 00:12:00,30.0,29.0,30.25,SW,221,0.0,-999.0,96,-99.99,,,-99.99,,2013-01-21 08:12:00,
2013-01-21 00:22:00,30.0,29.0,30.25,SW,221,0.0,-999.0,96,-99.99,,,-99.99,,2013-01-21 08:22:00,
2013-01-21 00:32:00,30.0,29.0,30.25,SW,221,0.0,-999.0,96,-99.99,,,-99.99,,2013-01-21 08:32:00,
2013-01-21 00:42:00,30.0,29.0,30.25,SW,221,0.0,-999.0,96,-99.99,,,-99.99,,2013-01-21 08:42:00,
2013-01-21 00:53:00,30.0,29.0,30.25,SW,221,0.0,-999.0,96,-99.99,,,-99.99,,2013-01-21 08:53:00,
2013-01-21 01:02:00,30.0,29.0,30.25,SW,221,0.0,-999.0,96,-99.99,,,-99.99,,2013-01-21 09:02:00,
2013-01-21 01:11:00,30.0,29.0,30.25,SW,221,0.0,-999.0,96,-99.99,,,-99.99,,2013-01-21 09:11:00,
2013-01-21 01:21:00,30.0,29.0,30.25,SW,221,0.0,-999.0,96,-99.99,,,-99.99,,2013-01-21 09:21:00,
2013-01-21 01:22:00,30.0,29.0,30.25,SW,221,0.0,-999.0,96,-99.99,,,-99.99,,2013-01-21 09:22:00,
2013-01-21 01:32:00,30.0,29.0,30.25,SW,221,0.0,-999.0,96,-99.99,,,-99.99,,2013-01-21 09:32:00,
2013-01-21 01:42:00,30.0,29.0,30.25,SW,221,0.0,-999.0,96,-99.99,,,-99.99,,2013-01-21 09:42:00,
2013-01-21 01:53:00,30.0,29.0,30.25,SW,221,0.0,-999.0,96,-99.99,,,-99.99,,2013-01-21 09:53:00,
2013-01-21 02:01:00,30.0,29.0,30.25,SW,221,0.0,-999.0,96,-99.99,,,-99.99,,2013-01-21 10:01:00,
2013-01-21 02:11:00,30.0,29.0,30.25,SW,221,0.0,-999.0,96,-99.99,,,-99.99,,2013-01-21 10:11:00,
2013-01-21 02:33:00,30.0,29.0,30.25,NNE,22,0.0,-999.0,96,-99.99,,,-99.99,,2013-01-21 10:33:00,
2013-01-21 02:43:00,30.0,29.0,30.25,NNE,22,0.0,-999.0,96,-99.99,,,-99.99,,2013-01-21 10:43:00,
2013-01-21 02:52:00,30.0,29.0,30.25,NNE,22,0.0,-999.0,96,-99.99,,,-99.99,,2013-01-21 10:52:00,
2013-01-21 03:02:00,30.0,29.0,30.25,NE,56,0.0,-999.0,96,-99.99,,,-99.99,,2013-01-21 11:02:00,
2013-01-21 03:12:00,30.0,29.0,30.25,NE,56,0.0,-999.0,96,-99.99,,,-99.99,,2013-01-21 11:12:00,
2013-01-21 03:22:00,30.0,29.0,30.25,ENE,59,0.0,-999.0,96,-99.99,,,-99.99,,2013-01-21 11:22:00,
2013-01-21 03:32:00,30.0,29.0,30.24,ENE,59,0.0,-999.0,96,-99.99,,,-99.99,,2013-01-21 11:32:00,
2013-01-21 03:42:00,30.0,29.0,30.24,ENE,59,0.0,-999.0,96,-99.99,,,-99.99,,2013-01-21 11:42:00,
2013-01-21 03:53:00,30.0,29.0,30.24,ENE,59,0.0,-999.0,96,-99.99,,,-99.99,,2013-01-21 11:53:00,
2013-01-21 04:02:00,30.0,29.0,30.24,ENE,59,0.0,-999.0,96,-99.99,,,-99.99,,2013-01-21 12:02:00,
2013-01-21 04:11:00,30.0,29.0,30.24,ENE,59,0.0,-999.0,96,-99.99,,,-99.99,,2013-01-21 12:11:00,
2013-01-21 04:22:00,30.0,29.0,30.24,ESE,114,0.0,-999.0,96,-99.99,,,-99.99,,2013-01-21 12:22:00,
2013-01-21 04:32:00,30.0,29.0,30.24,ESE,114,0.0,-999.0,96,-99.99,,,-99.99,,2013-01-21 12:32:00,
2013-01-21 04:42:00,30.0,29.0,30.24,ESE,114,0.0,-999.0,96,-99.99,,,-99.99,,2013-01-21 12:42:00,
2013-01-21 04:53:00,30.0,29.0,30.22,NE,55,1.0,-999.0,96,-99.99,,,-99.99,,2013-01-21 12:53:00,
2013-01-21 05:02:00,30.0,29.0,30.22,NE,55,0.0,-999.0,96,-99.99,,,-99.99,,2013-01-21 13:02:00,
2013-01-21 05:12:00,30.0,29.0,30.22,NE,55,0.0,-999.0,96,-99.99,,,-99.99,,2013-01-21 13:12:00,
2013-01-21 05:22:00,30.0,29.0,30.21,NE,55,0.0,-999.0,96,-99.99,,,-99.99,,2013-01-21 13:22:00,
2013-01-21 05:32:00,30.0,29.0,30.21,ENE,63,1.0,-999.0,96,-99.99,,,-99.99,,2013-01-21 13:32:00,
2013-01-21 05:42:00,30.0,29.0,30.21,ENE,63,1.0,-999.0,96,-99.99,,,-99.99,,2013-01-21 13:42:00,
2013-01-21 05:53:00,29.0,28.0,30.20,NE,44,1.0,-999.0,96,-99.99,,,-99.99,,2013-01-21 13:53:00,
2013-01-21 06:02:00,29.0,28.0,30.20,East,83,0.0,-999.0,96,-99.99,,,-99.99,,2013-01-21 14:02:00,
2013-01-21 06:12:00,29.0,28.0,30.20,East,83,0.0,-999.0,96,-99.99,,,-99.99,,2013-01-21 14:12:00,
2013-01-21 06:22:00,29.0,28.0,30.19,East,98,0.0,-999.0,96,-99.99,,,-99.99,,2013-01-21 14:22:00,
2013-01-21 06:32:00,29.0,28.0,30.19,ENE,77,0.0,-999.0,96,-99.99,,,-99.99,,2013-01-21 14:32:00,
2013-01-21 06:42:00,29.0,28.0,30.19,ENE,77,0.0,-999.0,96,-99.99,,,-99.99,,2013-01-21 14:42:00,
2013-01-21 06:53:00,28.0,27.0,30.19,ENE,74,1.0,-999.0,96,-99.99,,,-99.99,,2013-01-21 14:53:00,
2013-01-21 07:02:00,28.0,27.0,30.19,ENE,74,0.0,-999.0,96,-99.99,,,-99.99,,2013-01-21 15:02:00,
2013-01-21 07:12:00,28.0,27.0,30.19,ENE,74,0.0,-999.0,96,-99.99,,,-99.99,,2013-01-21 15:12:00,
2013-01-21 07:22:00,28.0,27.0,30.18,NE,36,0.0,-999.0,96,-99.99,,,-99.99,,2013-01-21 15:22:00,
2013-01-21 07:32:00,28.0,27.0,30.18,ENE,59,2.0,-999.0,96,-99.99,,,-99.99,,2013-01-21 15:32:00,
2013-01-21 07:42:00,28.0,27.0,30.18,ENE,59,2.0,-999.0,96,-99.99,,,-99.99,,2013-01-21 15:42:00,
2013-01-21 07:53:00,27.0,26.0,30.18,East,82,0.0,-999.0,96,-99.99,,,-99.99,,2013-01-21 15:53:00,
2013-01-21 08:02:00,27.0,26.0,30.18,East,82,0.0,-999.0,96,-99.99,,,-99.99,,2013-01-21 16:02:00,
2013-01-21 08:12:00,27.0,26.0,30.18,East,82,0.0,-999.0,96,-99.99,,,-99.99,,2013-01-21 16:12:00,
2013-01-21 08:23:00,28.0,27.0,30.18,East,101,0.0,-999.0,96,-99.99,,,-99.99,,2013-01-21 16:23:00,
2013-01-21 08:32:00,27.0,26.0,30.19,East,84,0.0,-999.0,96,-99.99,,,-99.99,,2013-01-21 16:32:00,
2013-01-21 08:43:00,27.0,26.0,30.19,East,84,0.0,-999.0,96,-99.99,,,-99.99,,2013-01-21 16:43:00,
2013-01-21 08:53:00,27.0,26.0,30.20,NNE,15,0.0,-999.0,96,-99.99,,,-99.99,,2013-01-21 16:53:00,
2013-01-21 09:02:00,27.0,26.0,30.20,East,86,0.0,-999.0,96,-99.99,,,-99.99,,2013-01-21 17:02:00,
2013-01-21 09:12:00,27.0,26.0,30.20,East,86,0.0,-999.0,96,-99.99,,,-99.99,,2013-01-21 17:12:00,
2013-01-21 09:22:00,27.0,26.0,30.21,East,86,0.0,-999.0,96,-99.99,,,-99.99,,2013-01-21 17:22:00,
2013-01-21 09:32:00,28.0,27.0,30.21,East,86,0.0,-999.0,96,-99.99,,,-99.99,,2013-01-21 17:32:00,
2013-01-21 09:42:00,28.0,27.0,30.21,East,86,0.0,-999.0,96,-99.99,,,-99.99,,2013-01-21 17:42:00,
2013-01-21 09:53:00,28.0,27.0,30.22,East,86,0.0,-999.0,96,-99.99,,,-99.99,,2013-01-21 17:53:00,
2013-01-21 10:02:00,28.0,27.0,30.22,East,86,0.0,-999.0,96,-99.99,,,-99.99,,2013-01-21 18:02:00,
2013-01-21 10:11:00,28.0,27.0,30.22,East,86,0.0,-999.0,96,-99.99,,,-99.99,,2013-01-21 18:11:00,
2013-01-21 10:22:00,28.0,27.0,30.22,East,86,0.0,-999.0,96,-99.99,,,-99.99,,2013-01-21 18:22:00,
2013-01-21 10:33:00,28.0,27.0,30.23,ENE,61,0.0,-999.0,96,-99.99,,,-99.99,,2013-01-21 18:33:00,
2013-01-21 10:42:00,28.0,27.0,30.23,ENE,61,0.0,-999.0,96,-99.99,,,-99.99,,2013-01-21 18:42:00,
2013-01-21 10:52:00,28.0,27.0,30.22,ENE,71,0.0,-999.0,96,-99.99,,,-99.99,,2013-01-21 18:52:00,
2013-01-21 11:02:00,28.0,27.0,30.22,ENE,71,0.0,-999.0,96,-99.99,,,-99.99,,2013-01-21 19:02:00,
2013-01-21 11:12:00,28.0,27.0,30.22,ENE,71,0.0,-999.0,95,-99.99,,,-99.99,,2013-01-21 19:12:00,
2013-01-21 11:22:00,28.0,27.0,30.22,ENE,71,0.0,-999.0,95,-99.99,,,-99.99,,2013-01-21 19:22:00,
2013-01-21 11:32:00,29.0,28.0,30.22,East,82,0.0,-999.0,95,-99.99,,,-99.99,,2013-01-21 19:32:00,
2013-01-21 11:42:00,29.0,28.0,30.22,East,82,0.0,-999.0,95,-99.99,,,-99.99,,2013-01-21 19:42:00,
2013-01-21 11:53:00,29.0,28.0,30.22,NNW,339,0.0,-999.0,95,-99.99,,,-99.99,,2013-01-21 19:53:00,
2013-01-21 12:02:00,29.0,28.0,30.22,NNW,336,0.0,-999.0,95,-99.99,,,-99.99,,2013-01-21 20:02:00,
2013-01-21 12:12:00,29.0,28.0,30.22,NNW,336,0.0,-999.0,95,-99.99,,,-99.99,,2013-01-21 20:12:00,
2013-01-21 12:22:00,29.0,27.0,30.21,SSE,163,0.0,-999.0,94,-99.99,,,-99.99,,2013-01-21 20:22:00,
2013-01-21 12:32:00,29.0,27.0,30.20,SW,215,0.0,-999.0,93,-99.99,,,-99.99,,2013-01-21 20:32:00,
2013-01-21 12:42:00,29.0,27.0,30.20,SW,215,0.0,-999.0,93,-99.99,,,-99.99,,2013-01-21 20:42:00,
2013-01-21 12:53:00,30.0,28.0,30.20,ENE,72,0.0,-999.0,91,-99.99,,,-99.99,,2013-01-21 20:53:00,
2013-01-21 13:02:00,30.0,28.0,30.20,ENE,72,0.0,-999.0,91,-99.99,,,-99.99,,2013-01-21 21:02:00,
2013-01-21 13:12:00,30.0,28.0,30.20,ENE,72,0.0,-999.0,91,-99.99,,,-99.99,,2013-01-21 21:12:00,
2013-01-21 13:22:00,31.0,29.0,30.18,East,87,0.0,-999.0,91,-99.99,,,-99.99,,2013-01-21 21:22:00,
2013-01-21 13:32:00,31.0,28.0,30.18,ENE,76,0.0,-999.0,90,-99.99,,,-99.99,,2013-01-21 21:32:00,
2013-01-21 13:42:00,31.0,28.0,30.18,ENE,76,0.0,-999.0,90,-99.99,,,-99.99,,2013-01-21 21:42:00,
2013-01-21 13:53:00,31.0,28.0,30.18,ENE,76,0.0,-999.0,89,-99.99,,,-99.99,,2013-01-21 21:53:00,
2013-01-21 14:02:00,32.0,29.0,30.17,ENE,76,0.0,-999.0,89,-99.99,,,-99.99,,2013-01-21 22:02:00,
2013-01-21 14:11:00,32.0,29.0,30.17,ENE,76,0.0,-999.0,89,-99.99,,,-99.99,,2013-01-21 22:11:00,
2013-01-21 14:22:00,32.0,29.0,30.17,East,97,0.0,-999.0,89,-99.99,,,-99.99,,2013-01-21 22:22:00,
2013-01-21 14:32:00,32.0,29.0,30.17,East,97,0.0,-999.0,89,-99.99,,,-99.99,,2013-01-21 22:32:00,
2013-01-21 14:42:00,32.0,29.0,30.17,East,97,0.0,-999.0,89,-99.99,,,-99.99,,2013-01-21 22:42:00,
2013-01-21 14:52:00,32.0,29.0,30.17,ESE,119,1.0,-999.0,89,-99.99,,,-99.99,,2013-01-21 22:52:00,
2013-01-21 15:02:00,32.0,29.0,30.17,ESE,119,0.0,-999.0,89,-99.99,,,-99.99,,2013-01-21 23:02:00,
2013-01-21 15:12:00,32.0,29.0,30.17,ESE,119,0.0,-999.0,89,-99.99,,,-99.99,,2013-01-21 23:12:00,
2013-01-21 15:22:00,32.0,29.0,30.16,South,172,0.0,-999.0,89,-99.99,,,-99.99,,2013-01-21 23:22:00,
2013-01-21 15:32:00,32.0,29.0,30.17,South,181,1.0,-999.0,89,-99.99,,,-99.99,,2013-01-21 23:32:00,
2013-01-21 15:42:00,32.0,29.0,30.17,South,181,1.0,-999.0,89,-99.99,,,-99.99,,2013-01-21 23:42:00,
2013-01-21 15:53:00,32.0,29.0,30.16,South,181,1.0,-999.0,90,-99.99,,,-99.99,,2013-01-21 23:53:00,
2013-01-21 16:02:00,31.0,28.0,30.16,South,181,1.0,-999.0,90,-99.99,,,-99.99,,2013-01-22 00:02:00,
2013-01-21 16:11:00,31.0,28.0,30.16,South,181,1.0,-999.0,90,-99.99,,,-99.99,,2013-01-22 00:11:00,
2013-01-21 16:22:00,31.0,29.0,30.15,NE,54,1.0,-999.0,91,-99.99,,,-99.99,,2013-01-22 00:22:00,
2013-01-21 16:32:00,31.0,29.0,30.15,NE,54,0.0,-999.0,91,-99.99,,,-99.99,,2013-01-22 00:32:00,
2013-01-21 16:42:00,31.0,29.0,30.15,NE,54,0.0,-999.0,91,-99.99,,,-99.99,,2013-01-22 00:42:00,
2013-01-21 16:53:00,31.0,29.0,30.15,East,88,0.0,-999.0,92,-99.99,,,-99.99,,2013-01-22 00:53:00,
2013-01-21 17:02:00,31.0,29.0,30.15,East,88,0.0,-999.0,92,-99.99,,,-99.99,,2013-01-22 01:02:00,
2013-01-21 17:12:00,31.0,29.0,30.15,East,88,0.0,-999.0,92,-99.99,,,-99.99,,2013-01-22 01:12:00,
2013-01-21 17:22:00,31.0,29.0,30.15,East,88,0.0,-999.0,92,-99.99,,,-99.99,,2013-01-22 01:22:00,
2013-01-21 17:32:00,30.0,28.0,30.15,East,88,0.0,-999.0,92,-99.99,,,-99.99,,2013-01-22 01:32:00,
2013-01-21 17:42:00,30.0,28.0,30.15,East,88,0.0,-999.0,92,-99.99,,,-99.99,,2013-01-22 01:42:00,
2013-01-21 17:52:00,30.0,28.0,30.14,North,5,0.0,-999.0,93,-99.99,,,-99.99,,2013-01-22 01:52:00,
2013-01-21 18:02:00,30.0,28.0,30.14,NNE,16,1.0,-999.0,93,-99.99,,,-99.99,,2013-01-22 02:02:00,
2013-01-21 18:12:00,30.0,28.0,30.14,NNE,16,1.0,-999.0,93,-99.99,,,-99.99,,2013-01-22 02:12:00,
2013-01-21 18:22:00,30.0,28.0,30.15,NNE,16,0.0,-999.0,94,-99.99,,,-99.99,,2013-01-22 02:22:00,
2013-01-21 18:32:00,30.0,28.0,30.14,North,355,0.0,-999.0,94,-99.99,,,-99.99,,2013-01-22 02:32:00,
2013-01-21 18:42:00,30.0,28.0,30.14,North,355,0.0,-999.0,94,-99.99,,,-99.99,,2013-01-22 02:42:00,
2013-01-21 18:53:00,30.0,28.0,30.14,NNW,329,0.0,-999.0,94,-99.99,,,-99.99,,2013-01-22 02:53:00,
2013-01-21 19:02:00,30.0,28.0,30.14,NNW,329,0.0,-999.0,94,-99.99,,,-99.99,,2013-01-22 03:02:00,
2013-01-21 19:12:00,30.0,28.0,30.14,NNW,329,0.0,-999.0,94,-99.99,,,-99.99,,2013-01-22 03:12:00,
2013-01-21 19:22:00,30.0,29.0,30.14,ESE,108,0.0,-999.0,95,-99.99,,,-99.99,,2013-01-22 03:22:00,
2013-01-21 19:32:00,30.0,29.0,30.14,ESE,108,0.0,-999.0,95,-99.99,,,-99.99,,2013-01-22 03:32:00,
2013-01-21 19:41:00,30.0,29.0,30.14,ESE,115,0.0,-999.0,95,-99.99,,,-99.99,,2013-01-22 03:41:00,
2013-01-21 19:42:00,30.0,29.0,30.14,ESE,108,0.0,-999.0,95,-99.99,,,-99.99,,2013-01-22 03:42:00,
2013-01-21 19:52:00,30.0,29.0,30.14,ESE,115,0.0,-999.0,95,-99.99,,,-99.99,,2013-01-22 03:52:00,
2013-01-21 20:02:00,30.0,29.0,30.14,ESE,115,0.0,-999.0,95,-99.99,,,-99.99,,2013-01-22 04:02:00,
2013-01-21 20:11:00,30.0,29.0,30.14,ESE,115,0.0,-999.0,95,-99.99,,,-99.99,,2013-01-22 04:11:00,
2013-01-21 20:22:00,30.0,29.0,30.14,ESE,115,0.0,-999.0,95,-99.99,,,-99.99,,2013-01-22 04:22:00,
2013-01-21 20:32:00,30.0,29.0,30.14,ESE,115,0.0,-999.0,95,-99.99,,,-99.99,,2013-01-22 04:32:00,
2013-01-21 21:53:00,29.0,28.0,30.15,ESE,105,0.0,-999.0,96,-99.99,,,-99.99,,2013-01-22 05:53:00,
2013-01-21 22:02:00,29.0,28.0,30.15,ESE,105,0.0,-999.0,96,-99.99,,,-99.99,,2013-01-22 06:02:00,
2013-01-21 22:12:00,29.0,28.0,30.15,ESE,105,0.0,-999.0,96,-99.99,,,-99.99,,2013-01-22 06:12:00,
2013-01-21 22:22:00,29.0,28.0,30.15,ESE,105,0.0,-999.0,96,-99.99,,,-99.99,,2013-01-22 06:22:00,
2013-01-21 22:32:00,29.0,28.0,30.15,ESE,105,0.0,-999.0,96,-99.99,,,-99.99,,2013-01-22 06:32:00,
2013-01-21 22:42:00,29.0,28.0,30.15,ESE,105,0.0,-999.0,96,-99.99,,,-99.99,,2013-01-22 06:42:00,
2013-01-21 22:52:00,29.0,28.0,30.15,ESE,105,0.0,-999.0,96,-99.99,,,-99.99,,2013-01-22 06:52:00,
2013-01-21 23:02:00,29.0,28.0,30.15,ESE,105,0.0,-999.0,96,-99.99,,,-99.99,,2013-01-22 07:02:00,
2013-01-21 23:11:00,29.0,28.0,30.15,ESE,105,0.0,-999.0,96,-99.99,,,-99.99,,2013-01-22 07:11:00,
2013-01-21 23:22:00,29.0,28.0,30.15,ESE,105,0.0,-999.0,96,-99.99,,,-99.99,,2013-01-22 07:22:00,
2013-01-21 23:32:00,29.0,28.0,30.15,ESE,105,0.0,-999.0,96,-99.99,,,-99.99,,2013-01-22 07:32:00,
2013-01-21 23:42:00,29.0,28.0,30.15,ESE,105,0.0,-999.0,96,-99.99,,,-99.99,,2013-01-22 07:42:00,
2013-01-21 23:52:00,29.0,28.0,30.14,ESE,105,0.0,-999.0,96,-99.99,,,-99.99,,2013-01-22 07:52:00,